This is the latest recevied weather packets stored in our database for station/object K0SNA. If no packets are shown the sender has not sent any weather packets the latest 10 day(s).
| Time | Temp. | Humidity | Pressure | Rain* | Wind** | Luminosity | Snow |
|---|---|---|---|---|---|---|---|
| 1777946080 | 8.89° C | 44% | 1006 hPa | 0 mm | - | 0 W/m² | - |
| 1777945777 | 8.89° C | 44% | 1005.8 hPa | 0 mm | - | 0 W/m² | - |
| 1777945474 | 8.89° C | 44% | 1005.8 hPa | 0 mm | - | 0 W/m² | - |
| 1777945171 | 8.89° C | 44% | 1005.7 hPa | 0 mm | - | 0 W/m² | - |
| 1777944868 | 8.89° C | 44% | 1005.8 hPa | 0 mm | - | 0 W/m² | - |
| 1777944566 | 8.89° C | 44% | 1005.8 hPa | 0 mm | - | 1 W/m² | - |
| 1777944264 | 9.44° C | 43% | 1005.6 hPa | 0 mm | - | 2 W/m² | - |
| 1777943960 | 9.44° C | 42% | 1005.4 hPa | 0 mm | - | 3 W/m² | - |
| 1777943656 | 9.44° C | 42% | 1005.4 hPa | 0 mm | - | 4 W/m² | - |
| 1777943353 | 9.44° C | 43% | 1005.4 hPa | 0 mm | - | 7 W/m² | - |
| 1777943049 | 10° C | 44% | 1005.1 hPa | 0 mm | - | 8 W/m² | - |
| 1777942745 | 10° C | 43% | 1005.1 hPa | 0 mm | - | 10 W/m² | - |
| 1777942442 | 10° C | 43% | 1005 hPa | 0 mm | - | 14 W/m² | - |
| 1777942140 | 10° C | 43% | 1004.8 hPa | 0 mm | - | 14 W/m² | - |
| 1777941836 | 10° C | 42% | 1004.8 hPa | 0 mm | - | 15 W/m² | - |
| 1777941533 | 10.56° C | 42% | 1004.5 hPa | 0 mm | - | 19 W/m² | - |
| 1777941230 | 10.56° C | 41% | 1004.7 hPa | 0 mm | - | 21 W/m² | - |
| 1777940926 | 11.11° C | 40% | 1004.5 hPa | 0 mm | - | 30 W/m² | - |
| 1777940623 | 11.11° C | 40% | 1004.5 hPa | 0 mm | - | 36 W/m² | - |
| 1777940321 | 11.11° C | 40% | 1004.3 hPa | 0 mm | - | 50 W/m² | - |
| 1777940018 | 11.11° C | 40% | 1004.1 hPa | 0 mm | - | 39 W/m² | - |
| 1777939715 | 11.11° C | 40% | 1004.3 hPa | 0 mm | - | 46 W/m² | - |
| 1777939413 | 11.11° C | 39% | 1003.9 hPa | 0 mm | - | 52 W/m² | - |
| 1777939110 | 11.67° C | 41% | 1004 hPa | 0 mm | - | 58 W/m² | - |
| 1777938807 | 11.67° C | 40% | 1003.9 hPa | 0 mm | - | 61 W/m² | - |
* Rain latest hour (hover to see other rain measurements)
** Current wind speed in m/s (hover to see current wind gust speed)